Terug naar catalogus

STARLINK-35273

ActiefCommunicatieSSO
NORAD 65805·PAYLOAD·🇺🇸 United States

Gelanceerd Sep 26, 2025 vanaf Vandenberg Space Force Base

Loading…

Volgende Passages (komende 24 uur)

TLE

VersSource: CelesTrak SupGP

Epoch: Sep 15, 2026, 04:07 UTC

1 65805C 25218Q   26258.17201389 -.00068027  00000+0 -21116-2 0  2581
2 65805  97.2844 115.6274 0001976  95.7012  45.3379 15.33474883    11

Volg STARLINK-35273 in realtime met AllMySat

Download on the App Store